Location: Feudal
(51.8839°N, 107.6105°W)
Time: 11:56:11
(UTC+00:00)

Envisat - Pass Details

Date: 26 January 2022
Orbit: 764 x 765 km, 98.2° (Epoch: 22 May)

Event Time Altitude Azimuth Distance (km) Brightness Sun altitude
Rises 12:35:51 0° 12° (NNE) 3,244 6.4 -21.8°
Reaches altitude 10° 12:38:11 10° 10° (N) 2,314 5.6 -21.4°
Maximum altitude 12:43:14 68° 289° (WNW) 826 2.9 -20.6°
Drops below altitude 10° 12:48:16 10° 207° (SSW) 2,298 5.3 -19.9°
Sets 12:50:34 0° 205° (SSW) 3,221 6.0 -19.5°
